Zurück zum Katalog

STARLINK-37946

AktivKommunikationSSO
NORAD 69672·PAYLOAD·🇺🇸 United States

Gestartet Jun 21, 2026 von Vandenberg Space Force Base

Loading…

Nächste Überflüge (nächste 24 Stunden)

TLE

AktuellSource: CelesTrak SupGP

Epoche: Sep 14, 2026, 22:33 UTC

1 69672C 26143Z   26257.94006944  .00020084  00000+0  62351-3 0  2574
2 69672  97.2833 301.2611 0001084 108.1145 259.6538 15.33427115    12

Verfolge STARLINK-37946 in Echtzeit mit AllMySat

Download on the App Store